[[{"header":{"parameterUnit":"m.s-1","parameterCategory":2,"la1":30.2991,"la2":30.254,"lo1":-89.0895,"lo2":-89.0444,"dy":0.0017,"dx":0.0017,"nx":28,"ny":28,"refTime":"2023-04-27T21:00:00:Z","depth":"0","parameterNumber":2,"parameterNumberName":"U-component_of_CURRENTS"},"data":[0,0,0,0,0,0,0,0,0,0,0,0,0,0,0,0,0,0,0,0,0,0,0,0,0,0,0,0,0,0,0,0,0,0,0,0,0,0,0,0,0,0,0,0,0,0,0,0,0,0,0,0,0,0,0,0,0,0,-0.0855,-0.0855,0,-0.085,-0.085,-0.085,-0.0834,-0.0834,-0.0833,-0.0833,-0.0832,-0.0833,-0.0833,0,0,0,0,0,0,0,0,0,0,0,0,0,-0.0894,-0.0893,-0.0855,-0.0855,-0.0855,-0.085,-0.085,-0.085,-0.0834,-0.0834,-0.0833,-0.0833,-0.0832,-0.0833,-0.0833,0,0,0,0,0,0,0,0,0,0,0,0,0,-0.0882,-0.0893,-0.0855,-0.0846,-0.0845,-0.0851,-0.085,-0.085,-0.0834,-0.0834,-0.0833,-0.0833,-0.0832,-0.0833,-0.0833,-0.0848,0,0,-0.0835,-0.0835,0,0,0,0,0,0,0,0,-0.0883,-0.0881,-0.0848,-0.0847,-0.0846,-0.0842,-0.0864,-0.085,-0.0834,-0.0839,-0.0833,-0.0832,-0.0836,-0.0836,-0.0837,-0.0848,-0.0848,-0.0835,-0.0835,-0.0835,-0.0836,0,0,0,0,0,0,0,-0.0883,-0.0881,-0.0854,-0.0848,-0.0847,-0.0857,-0.0855,-0.0861,-0.0841,-0.0838,-0.0837,-0.0836,-0.0836,-0.0837,-0.0837,-0.0848,-0.0835,-0.0835,-0.0836,-0.0836,-0.0888,-0.0889,0,0,0,0,0,0,-0.0882,-0.0882,-0.0854,-0.0853,-0.0863,-0.0857,-0.0854,-0.0844,-0.0841,-0.084,-0.0837,-0.0836,-0.0836,-0.0836,-0.0837,-0.0844,-0.0835,-0.0836,-0.0836,-0.0887,-0.0888,-0.0889,0,0,0,0,0,0,-0.0882,-0.0879,-0.0854,-0.0868,-0.0865,-0.0857,-0.0846,-0.0844,-0.084,-0.084,-0.0839,-0.0833,-0.0836,-0.0836,-0.0852,-0.0844,-0.0836,-0.0837,-0.0886,-0.0887,-0.0889,-0.0865,0,0,0,0,0,0,-0.0883,-0.0879,-0.0872,-0.0867,-0.0864,-0.0849,-0.0846,-0.0845,-0.084,-0.0839,-0.0837,-0.0836,-0.0835,-0.0852,-0.0853,-0.0845,-0.0837,-0.0884,-0.0887,-0.0888,-0.0864,-0.0866,-0.0867,0,0,0,0,0,-0.0885,-0.0872,-0.0871,-0.0868,-0.0854,-0.0849,-0.0849,-0.0841,-0.0841,-0.0836,-0.0848,-0.0836,-0.0865,-0.0853,-0.0854,-0.0846,-0.0883,-0.0886,-0.0888,-0.0864,-0.0865,-0.0867,0,0,0,0,0,0,-0.0894,-0.0869,-0.0868,-0.0851,-0.0849,-0.0846,-0.0837,-0.0841,-0.0847,-0.0842,-0.085,-0.0851,-0.0861,-0.0868,-0.0855,-0.0872,-0.0872,-0.0875,-0.0853,-0.0855,-0.0856,-0.0859,-0.0837,0,0,0,0,0,-0.0891,-0.0866,-0.0862,-0.0848,-0.0843,-0.0843,-0.084,-0.0836,-0.084,-0.0841,-0.0852,-0.0864,-0.0874,-0.0875,-0.0886,-0.0896,-0.0932,-0.0895,-0.0896,-0.0896,-0.0903,-0.0981,-0.0989,-0.0897,-0.0897,-0.0897,0,0,-0.0894,-0.0875,-0.0864,-0.0848,-0.0841,-0.0836,-0.0839,-0.0826,-0.0833,-0.0841,-0.0858,-0.0867,-0.088,-0.0889,-0.0894,-0.0891,-0.0938,-0.0899,-0.0899,-0.0906,-0.0984,-0.0993,-0.1001,-0.0899,-0.0899,-0.0899,0,0,-0.088,-0.0866,-0.084,-0.0831,-0.0815,-0.0823,-0.082,-0.0823,-0.083,-0.085,-0.0858,-0.0871,-0.0892,-0.0897,-0.0903,-0.0922,-0.0944,-0.0922,-0.0922,-0.0997,-0.1005,-0.1012,-0.1051,-0.1063,-0.0919,-0.0919,-0.0919,0,-0.0891,-0.0854,-0.0837,-0.0811,-0.081,-0.0818,-0.081,-0.082,-0.0836,-0.0853,-0.0853,-0.0895,-0.0896,-0.0911,-0.0914,-0.092,-0.0964,-0.0908,-0.0997,-0.1006,-0.1014,-0.1053,-0.1066,-0.0918,-0.0918,-0.0918,-0.0918,0,-0.0854,-0.083,-0.0814,-0.0788,-0.0789,-0.0779,-0.0793,-0.0806,-0.0827,-0.0849,-0.0877,-0.0891,-0.0918,-0.0914,-0.0916,-0.0963,-0.0974,-0.099,-0.0989,-0.1022,-0.106,-0.1074,-0.0917,-0.0917,-0.0917,-0.0917,0,0,-0.0884,-0.0805,-0.0804,-0.0789,-0.0776,-0.0779,-0.079,-0.0817,-0.0841,-0.086,-0.0899,-0.0906,-0.0921,-0.093,-0.0932,-0.0983,-0.106,-0.1009,-0.1014,-0.1039,-0.1216,-0.1165,-0.1175,-0.1103,-0.1106,-0.1108,-0.1212,0,-0.0874,-0.0816,-0.079,-0.0776,-0.0761,-0.0769,-0.0788,-0.0812,-0.0847,-0.0891,-0.0907,-0.0941,-0.0925,-0.0937,-0.0985,-0.1045,-0.11,-0.103,-0.1189,-0.1193,-0.1138,-0.1191,-0.1218,-0.1309,-0.1225,-0.1228,-0.1229,0,-0.0869,-0.0827,-0.0792,-0.0772,-0.077,-0.0773,-0.0816,-0.0829,-0.088,-0.0906,-0.0936,-0.0964,-0.1007,-0.101,-0.1123,-0.1085,-0.1154,-0.1201,-0.1207,-0.1181,-0.1169,-0.1269,-0.1337,-0.1285,-0.1251,-0.1249,-0.1248,0,-0.091,-0.0851,-0.0825,-0.0812,-0.0785,-0.0791,-0.0798,-0.0839,-0.0864,-0.092,-0.0961,-0.1008,-0.1058,-0.1135,-0.1196,-0.1188,-0.1338,-0.1343,-0.136,-0.1356,-0.1419,-0.1415,-0.1451,-0.1462,-0.1462,-0.1461,-0.1461,0,-0.0926,-0.0913,-0.0837,-0.0822,-0.0819,-0.0804,-0.0827,-0.0845,-0.0886,-0.0938,-0.097,-0.1036,-0.1107,-0.1185,-0.123,-0.1318,-0.1368,-0.1374,-0.1392,-0.1407,-0.1401,-0.139,-0.1313,-0.1465,-0.1464,-0.1464,-0.1463,0,-0.0979,-0.0924,-0.089,-0.0841,-0.083,-0.083,-0.0825,-0.0845,-0.0891,-0.0962,-0.0985,-0.109,-0.1183,-0.1222,-0.1358,-0.1375,-0.1411,-0.1474,-0.1454,-0.1467,-0.1409,-0.1329,-0.1385,-0.1311,-0.1521,-0.1521,-0.152,0,-0.0995,-0.0975,-0.0902,-0.0874,-0.0847,-0.0833,-0.0827,-0.0844,-0.0876,-0.1004,-0.1052,-0.1163,-0.1238,-0.1361,-0.1424,-0.1479,-0.1414,-0.1527,-0.1511,-0.1415,-0.1342,-0.1308,-0.1238,-0.159,-0.159,-0.159,-0.159,0,-0.103,-0.0999,-0.0956,-0.0889,-0.0861,-0.0838,-0.084,-0.0865,-0.092,-0.0996,-0.1129,-0.12,-0.1339,-0.1446,-0.149,-0.1504,-0.1437,-0.153,-0.1478,-0.1428,-0.1355,-0.1289,-0.1474,-0.1592,-0.1592,-0.1592,-0.1592,-0.1592,-0.1056,-0.1027,-0.0955,-0.09,-0.0869,-0.0853,-0.0833,-0.0863,-0.0918,-0.1024,-0.1146,-0.1262,-0.1453,-0.1535,-0.1511,-0.1518,-0.1458,-0.1515,-0.1437,-0.1422,-0.1311,-0.1454,-0.155,-0.155,-0.155,-0.1549,-0.1549,0,-0.1084,-0.1027,-0.0969,-0.0901,-0.0881,-0.0854,-0.0844,-0.0823,-0.0875,-0.1015,-0.1116,-0.138,-0.1487,-0.1571,-0.1666,-0.1517,-0.1442,-0.1389,-0.1377,-0.1315,-0.1523,-0.1484,-0.1512,-0.1512,-0.1512,-0.1512,-0.1512,-0.1512,-0.1089,-0.103,-0.0981,-0.0923,-0.0888,-0.0839,-0.0821,-0.0786,-0.084,-0.0985,-0.117,-0.1331,-0.1534,-0.1613,-0.1528,-0.1426,-0.1265,-0.1222,-0.1097,-0.1267,-0.1274,-0.1281,-0.1231,-0.1206,-0.1205,-0.0955,-0.0952,-0.095]},{"header":{"parameterUnit":"m.s-1","parameterCategory":2,"la1":30.2991,"la2":30.254,"lo1":-89.0895,"lo2":-89.0444,"dy":0.0017,"dx":0.0017,"nx":28,"ny":28,"refTime":"2023-04-27T21:00:00:Z","depth":"0","parameterNumber":3,"parameterNumberName":"V-component_of_CURRENTS"},"data":[0,0,0,0,0,0,0,0,0,0,0,0,0,0,0,0,0,0,0,0,0,0,0,0,0,0,0,0,0,0,0,0,0,0,0,0,0,0,0,0,0,0,0,0,0,0,0,0,0,0,0,0,0,0,0,0,0,0,-0.2245,-0.2244,0,-0.2165,-0.2164,-0.2163,-0.211,-0.211,-0.2109,-0.2109,-0.2057,-0.2056,-0.2055,0,0,0,0,0,0,0,0,0,0,0,0,0,-0.2286,-0.2286,-0.2245,-0.2244,-0.2243,-0.2165,-0.2164,-0.2163,-0.211,-0.211,-0.2109,-0.2109,-0.2057,-0.2056,-0.2055,0,0,0,0,0,0,0,0,0,0,0,0,0,-0.2244,-0.2286,-0.2245,-0.2207,-0.2203,-0.2166,-0.2164,-0.2163,-0.211,-0.2109,-0.2109,-0.2108,-0.2058,-0.2056,-0.2055,-0.2056,0,0,-0.205,-0.2049,0,0,0,0,0,0,0,0,-0.2246,-0.2242,-0.2213,-0.2209,-0.2205,-0.2147,-0.216,-0.2129,-0.211,-0.2145,-0.2109,-0.2108,-0.209,-0.2086,-0.2072,-0.2053,-0.2051,-0.205,-0.2049,-0.2048,-0.2048,0,0,0,0,0,0,0,-0.2249,-0.2245,-0.2213,-0.2213,-0.2207,-0.2172,-0.2166,-0.2153,-0.2122,-0.2142,-0.2138,-0.213,-0.2088,-0.2073,-0.207,-0.205,-0.205,-0.2049,-0.2048,-0.2047,-0.204,-0.2041,0,0,0,0,0,0,-0.2263,-0.2248,-0.2215,-0.2211,-0.2225,-0.2172,-0.2165,-0.2166,-0.2121,-0.2114,-0.213,-0.2127,-0.2076,-0.2072,-0.2068,-0.2074,-0.2048,-0.2047,-0.2046,-0.2039,-0.204,-0.2041,0,0,0,0,0,0,-0.2265,-0.2262,-0.2219,-0.2227,-0.2219,-0.2172,-0.2173,-0.2165,-0.2145,-0.2112,-0.2105,-0.2119,-0.2076,-0.207,-0.2073,-0.2072,-0.2046,-0.2045,-0.2038,-0.2039,-0.204,-0.2082,0,0,0,0,0,0,-0.2267,-0.2263,-0.2265,-0.2228,-0.2219,-0.2195,-0.2174,-0.2164,-0.2141,-0.2137,-0.2101,-0.2095,-0.2075,-0.2076,-0.2071,-0.2069,-0.2043,-0.2037,-0.2039,-0.204,-0.208,-0.2085,-0.2089,0,0,0,0,0,-0.2268,-0.2275,-0.2266,-0.2261,-0.2225,-0.2195,-0.2187,-0.2151,-0.2142,-0.2132,-0.2125,-0.2096,-0.2081,-0.2076,-0.207,-0.2067,-0.2037,-0.2038,-0.204,-0.2078,-0.2084,-0.2089,0,0,0,0,0,0,-0.2289,-0.227,-0.2258,-0.2258,-0.2228,-0.2186,-0.2179,-0.2154,-0.2138,-0.2139,-0.2112,-0.2107,-0.2105,-0.2088,-0.2082,-0.2071,-0.2051,-0.2052,-0.2082,-0.2087,-0.2091,-0.2072,-0.2042,0,0,0,0,0,-0.2297,-0.23,-0.2269,-0.2265,-0.2259,-0.222,-0.2204,-0.2177,-0.2159,-0.2149,-0.2125,-0.2111,-0.2108,-0.21,-0.2088,-0.2086,-0.2067,-0.208,-0.2084,-0.2088,-0.2071,-0.2063,-0.2065,-0.2046,-0.2046,-0.2046,0,0,-0.2302,-0.2293,-0.2291,-0.227,-0.2251,-0.2234,-0.2209,-0.2187,-0.2165,-0.2149,-0.2126,-0.2125,-0.2113,-0.2111,-0.2107,-0.2096,-0.2087,-0.209,-0.2094,-0.2073,-0.2065,-0.2067,-0.2068,-0.2048,-0.2047,-0.2047,0,0,-0.2312,-0.231,-0.2314,-0.2294,-0.2267,-0.2244,-0.224,-0.22,-0.2179,-0.2162,-0.2153,-0.2157,-0.2133,-0.2129,-0.2125,-0.2148,-0.2113,-0.2143,-0.2145,-0.2139,-0.214,-0.2141,-0.2133,-0.2133,-0.2142,-0.2142,-0.2142,0,-0.2313,-0.2317,-0.2307,-0.2301,-0.2285,-0.2253,-0.2242,-0.2216,-0.2176,-0.2166,-0.2158,-0.2144,-0.2138,-0.2143,-0.2153,-0.2155,-0.2145,-0.2127,-0.2144,-0.2144,-0.2144,-0.2136,-0.2135,-0.2145,-0.2144,-0.2144,-0.2144,0,-0.2319,-0.2319,-0.2322,-0.2308,-0.2291,-0.2276,-0.2244,-0.2221,-0.2198,-0.2173,-0.2165,-0.2163,-0.215,-0.2159,-0.2161,-0.2163,-0.2155,-0.2154,-0.2129,-0.2148,-0.2139,-0.2137,-0.2148,-0.2147,-0.2146,-0.2146,0,0,-0.2316,-0.2326,-0.2323,-0.232,-0.2292,-0.2276,-0.2254,-0.2224,-0.2207,-0.2178,-0.2157,-0.2169,-0.2163,-0.2159,-0.2165,-0.2164,-0.2171,-0.2158,-0.2157,-0.2147,-0.2156,-0.2188,-0.2189,-0.2174,-0.2173,-0.2173,-0.2154,0,-0.2316,-0.2324,-0.232,-0.2308,-0.2307,-0.2277,-0.2254,-0.2223,-0.2202,-0.2173,-0.2167,-0.2153,-0.2164,-0.2162,-0.2166,-0.2167,-0.2165,-0.2175,-0.214,-0.2138,-0.2162,-0.2187,-0.2163,-0.2147,-0.2152,-0.2152,-0.2152,0,-0.231,-0.2319,-0.2324,-0.2312,-0.2308,-0.2292,-0.2258,-0.223,-0.2194,-0.2176,-0.2165,-0.2149,-0.2145,-0.2146,-0.2146,-0.2153,-0.2151,-0.2151,-0.2151,-0.2158,-0.2167,-0.2125,-0.2143,-0.1929,-0.2148,-0.2149,-0.2149,0,-0.231,-0.2311,-0.2322,-0.2316,-0.23,-0.2289,-0.2268,-0.2235,-0.2211,-0.2174,-0.2155,-0.2146,-0.2128,-0.2128,-0.2128,-0.2134,-0.2122,-0.213,-0.2155,-0.2157,-0.2114,-0.2114,-0.1913,-0.2118,-0.2118,-0.2118,-0.2118,0,-0.2303,-0.2304,-0.2325,-0.2327,-0.2315,-0.2297,-0.2274,-0.2249,-0.2212,-0.2192,-0.2159,-0.2141,-0.2121,-0.211,-0.2118,-0.2133,-0.2113,-0.2151,-0.2155,-0.2132,-0.2133,-0.1929,-0.1727,-0.2117,-0.2118,-0.2118,-0.2118,0,-0.2291,-0.2308,-0.2316,-0.2321,-0.232,-0.2305,-0.2274,-0.2252,-0.2221,-0.2191,-0.2172,-0.2129,-0.2121,-0.2109,-0.2103,-0.212,-0.1966,-0.2136,-0.2111,-0.2114,-0.1964,-0.1765,-0.1416,-0.129,-0.2166,-0.2166,-0.2167,0,-0.2282,-0.2295,-0.2319,-0.232,-0.2323,-0.2305,-0.2285,-0.2254,-0.2241,-0.2193,-0.2182,-0.2146,-0.2145,-0.2145,-0.2159,-0.2174,-0.1932,-0.2139,-0.2154,-0.1942,-0.1722,-0.1509,-0.1412,-0.2112,-0.2112,-0.2112,-0.2112,0,-0.2266,-0.2285,-0.2295,-0.2311,-0.2305,-0.2287,-0.2272,-0.2272,-0.2236,-0.2235,-0.2227,-0.222,-0.2205,-0.2229,-0.2227,-0.2202,-0.1866,-0.2145,-0.1917,-0.1646,-0.1401,-0.129,-0.2128,-0.2113,-0.2113,-0.2113,-0.2113,-0.2112,-0.2246,-0.2251,-0.2278,-0.2285,-0.2285,-0.2276,-0.2262,-0.2285,-0.2289,-0.2319,-0.2301,-0.2353,-0.2292,-0.2308,-0.2218,-0.1981,-0.186,-0.1894,-0.1668,-0.1475,-0.1331,-0.218,-0.2182,-0.2182,-0.2182,-0.2182,-0.2183,0,-0.221,-0.223,-0.2246,-0.2249,-0.2248,-0.2248,-0.2253,-0.2269,-0.2324,-0.2415,-0.2457,-0.2477,-0.2358,-0.2193,-0.1896,-0.1579,-0.14,-0.1343,-0.1006,-0.094,-0.1719,-0.1704,-0.1612,-0.1612,-0.1612,-0.1613,-0.1613,-0.1613,-0.2185,-0.22,-0.222,-0.2215,-0.2217,-0.2208,-0.2216,-0.2291,-0.2386,-0.2518,-0.2606,-0.2654,-0.2204,-0.1489,-0.1,-0.0911,-0.049,-0.0401,-0.0224,-0.0745,-0.0779,-0.0811,-0.0757,-0.0468,-0.0466,0.0481,0.0491,0.0498]}],[{"header":{"parameterUnit":"m.s-1","parameterCategory":2,"la1":30.2991,"la2":30.254,"lo1":-89.0895,"lo2":-89.0444,"dy":0.0017,"dx":0.0017,"nx":28,"ny":28,"refTime":"2023-04-27T21:00:00:Z","depth":"2","parameterNumber":2,"parameterNumberName":"U-component_of_CURRENTS"},"data":[0,0,0,0,0,0,0,0,0,0,0,0,0,0,0,0,0,0,0,0,0,0,0,0,0,0,0,0,0,0,0,0,0,0,0,0,0,0,0,0,0,0,0,0,0,0,0,0,0,0,0,0,0,0,0,0,0,0,-0.2073,-0.2074,0,-0.2112,-0.2113,-0.2113,-0.2113,-0.2112,-0.2112,-0.2112,-0.2085,-0.2085,-0.2084,0,0,0,0,0,0,0,0,0,0,0,0,0,-0.1983,-0.1985,-0.2073,-0.2074,-0.2075,-0.2112,-0.2113,-0.2113,-0.2113,-0.2112,-0.2112,-0.2112,-0.2085,-0.2085,-0.2084,0,0,0,0,0,0,0,0,0,0,0,0,0,-0.202,-0.1985,-0.2073,-0.2081,-0.2082,-0.2112,-0.2113,-0.2113,-0.2113,-0.2112,-0.2112,-0.2112,-0.2085,-0.2085,-0.2084,-0.2087,0,0,-0.2082,-0.2082,0,0,0,0,0,0,0,0,-0.2018,-0.2023,-0.2079,-0.2081,-0.2082,-0.211,-0.2071,-0.2102,-0.2113,-0.2098,-0.2112,-0.2111,-0.2089,-0.2088,-0.2093,-0.2086,-0.2085,-0.2082,-0.2081,-0.2081,-0.2081,0,0,0,0,0,0,0,-0.2015,-0.2021,-0.2086,-0.208,-0.2082,-0.2078,-0.2083,-0.2077,-0.2092,-0.2099,-0.21,-0.2109,-0.2089,-0.2094,-0.2093,-0.2085,-0.2082,-0.2081,-0.2081,-0.2081,-0.2087,-0.2088,0,0,0,0,0,0,-0.2018,-0.2019,-0.2085,-0.2087,-0.2051,-0.208,-0.2085,-0.2099,-0.2094,-0.2094,-0.211,-0.2109,-0.2096,-0.2094,-0.2092,-0.2108,-0.2081,-0.208,-0.208,-0.2087,-0.2088,-0.2088,0,0,0,0,0,0,-0.2015,-0.2023,-0.2083,-0.2056,-0.2063,-0.2083,-0.2098,-0.21,-0.2101,-0.2103,-0.2101,-0.2108,-0.2095,-0.2093,-0.2084,-0.2106,-0.208,-0.2079,-0.2086,-0.2087,-0.2088,-0.2133,0,0,0,0,0,0,-0.2013,-0.2022,-0.2018,-0.2056,-0.2065,-0.2099,-0.2099,-0.2101,-0.2108,-0.2108,-0.21,-0.2098,-0.2095,-0.2085,-0.2083,-0.2105,-0.2079,-0.2085,-0.2086,-0.2088,-0.2131,-0.2135,-0.2139,0,0,0,0,0,-0.2009,-0.2015,-0.2018,-0.2025,-0.2064,-0.21,-0.2104,-0.2114,-0.2109,-0.2111,-0.2104,-0.2098,-0.2091,-0.2084,-0.2082,-0.2105,-0.2085,-0.2086,-0.2087,-0.2129,-0.2134,-0.2139,0,0,0,0,0,0,-0.1977,-0.2017,-0.202,-0.2038,-0.2064,-0.2101,-0.2099,-0.2111,-0.2109,-0.2101,-0.2098,-0.2096,-0.21,-0.2091,-0.2084,-0.211,-0.209,-0.2091,-0.2122,-0.2127,-0.2131,-0.2123,-0.2078,0,0,0,0,0,-0.1968,-0.1976,-0.202,-0.2028,-0.2041,-0.2067,-0.2077,-0.2091,-0.2104,-0.2102,-0.2102,-0.21,-0.2106,-0.2105,-0.2104,-0.2112,-0.21,-0.2127,-0.2131,-0.2135,-0.2127,-0.2134,-0.2138,-0.2093,-0.2093,-0.2093,0,0,-0.1952,-0.1978,-0.1979,-0.202,-0.2035,-0.2059,-0.2071,-0.2091,-0.2106,-0.2098,-0.2103,-0.2109,-0.2109,-0.2124,-0.2126,-0.2118,-0.2142,-0.2136,-0.214,-0.2129,-0.2136,-0.214,-0.2144,-0.2094,-0.2093,-0.2093,0,0,-0.1941,-0.1953,-0.196,-0.1986,-0.202,-0.2041,-0.2048,-0.2086,-0.2095,-0.211,-0.2112,-0.2127,-0.2131,-0.2145,-0.215,-0.2173,-0.2162,-0.218,-0.2198,-0.2207,-0.221,-0.2213,-0.2207,-0.2209,-0.2186,-0.2186,-0.2186,0,-0.1921,-0.1944,-0.1966,-0.1989,-0.2009,-0.2034,-0.2056,-0.2072,-0.2102,-0.2115,-0.2111,-0.2142,-0.2142,-0.2171,-0.2186,-0.2183,-0.2179,-0.2182,-0.2212,-0.2215,-0.2218,-0.221,-0.2212,-0.2188,-0.2188,-0.2188,-0.2187,0,-0.1921,-0.1942,-0.195,-0.1984,-0.2006,-0.2029,-0.2066,-0.2082,-0.2097,-0.2123,-0.2152,-0.2162,-0.2185,-0.2198,-0.2198,-0.2229,-0.2217,-0.2216,-0.22,-0.2225,-0.2215,-0.2216,-0.2191,-0.2191,-0.219,-0.2189,0,0,-0.1882,-0.1939,-0.194,-0.1962,-0.2009,-0.2031,-0.2057,-0.2099,-0.2119,-0.2146,-0.2177,-0.2204,-0.2221,-0.2227,-0.2241,-0.2251,-0.2272,-0.2245,-0.2244,-0.2238,-0.2282,-0.2203,-0.2196,-0.2281,-0.2281,-0.2282,-0.2269,0,-0.1877,-0.1913,-0.1946,-0.1979,-0.2005,-0.2044,-0.2069,-0.2106,-0.2137,-0.217,-0.2196,-0.2224,-0.2229,-0.2249,-0.2263,-0.2262,-0.2277,-0.2275,-0.2257,-0.2256,-0.2183,-0.2195,-0.1933,-0.1893,-0.227,-0.227,-0.227,0,-0.1871,-0.1901,-0.1931,-0.1993,-0.2006,-0.2028,-0.2078,-0.2107,-0.216,-0.2186,-0.2225,-0.2246,-0.227,-0.2272,-0.2281,-0.2281,-0.2287,-0.2285,-0.2285,-0.2192,-0.2178,-0.1928,-0.188,-0.2271,-0.2271,-0.2271,-0.2271,0,-0.1833,-0.1894,-0.1915,-0.1935,-0.2002,-0.2023,-0.2056,-0.2111,-0.2133,-0.2197,-0.2211,-0.2256,-0.2255,-0.2279,-0.226,-0.2285,-0.225,-0.2285,-0.2222,-0.2217,-0.1977,-0.1949,-0.2303,-0.2303,-0.2303,-0.2303,-0.2303,0,-0.1819,-0.1838,-0.19,-0.1913,-0.1938,-0.2001,-0.2031,-0.2074,-0.213,-0.2138,-0.2211,-0.2198,-0.2254,-0.2239,-0.2256,-0.2209,-0.2244,-0.2216,-0.2207,-0.1985,-0.196,-0.2274,-0.2271,-0.2302,-0.2303,-0.2303,-0.2303,0,-0.1763,-0.1809,-0.1837,-0.1902,-0.1921,-0.1934,-0.1996,-0.2019,-0.208,-0.209,-0.2106,-0.2144,-0.2119,-0.215,-0.216,-0.2169,-0.216,-0.2141,-0.1867,-0.1827,-0.2136,-0.2135,-0.2103,-0.21,-0.2098,-0.2096,-0.2094,0,-0.1737,-0.1743,-0.1798,-0.1808,-0.1834,-0.187,-0.1893,-0.1976,-0.1992,-0.2024,-0.2009,-0.2011,-0.1999,-0.1978,-0.1984,-0.2001,-0.2054,-0.1748,-0.1762,-0.212,-0.2115,-0.2118,-0.2121,-0.1462,-0.1455,-0.145,-0.1445,0,-0.167,-0.1683,-0.1697,-0.1723,-0.1748,-0.1769,-0.1806,-0.1814,-0.1886,-0.1914,-0.1896,-0.1901,-0.1869,-0.1762,-0.1764,-0.1715,-0.1733,-0.164,-0.205,-0.1565,-0.1517,-0.1513,-0.1535,-0.1396,-0.1401,-0.1404,-0.1407,-0.1409,-0.1599,-0.1581,-0.1601,-0.1614,-0.1652,-0.1659,-0.1655,-0.1715,-0.1743,-0.1834,-0.1835,-0.1834,-0.1747,-0.1715,-0.1553,-0.1365,-0.1543,-0.1401,-0.1416,-0.1438,-0.1378,-0.133,-0.1161,-0.1164,-0.1167,-0.117,-0.1172,0,-0.1492,-0.1486,-0.1493,-0.1508,-0.1518,-0.1571,-0.1587,-0.1606,-0.1635,-0.1848,-0.1931,-0.1679,-0.1555,-0.1401,-0.109,-0.1027,-0.1004,-0.0875,-0.0829,-0.0874,-0.0915,-0.083,-0.0467,-0.0466,-0.0466,-0.0465,0,0,-0.1428,-0.1382,-0.1383,-0.1365,-0.1395,-0.1396,-0.1393,-0.1462,-0.1616,-0.1741,-0.1783,-0.2056,-0.1713,-0.1377,-0.1096,-0.0775,-0.0903,-0.0697,-0.1251,-0.1273,-0.1319,-0.1163,-0.1075,0,0,0,0,0]},{"header":{"parameterUnit":"m.s-1","parameterCategory":2,"la1":30.2991,"la2":30.254,"lo1":-89.0895,"lo2":-89.0444,"dy":0.0017,"dx":0.0017,"nx":28,"ny":28,"refTime":"2023-04-27T21:00:00:Z","depth":"2","parameterNumber":3,"parameterNumberName":"V-component_of_CURRENTS"},"data":[0,0,0,0,0,0,0,0,0,0,0,0,0,0,0,0,0,0,0,0,0,0,0,0,0,0,0,0,0,0,0,0,0,0,0,0,0,0,0,0,0,0,0,0,0,0,0,0,0,0,0,0,0,0,0,0,0,0,0.0783,0.0784,0,0.0942,0.0944,0.0947,0.1004,0.1002,0.1001,0.1,0.1172,0.1178,0.1183,0,0,0,0,0,0,0,0,0,0,0,0,0,0.0819,0.0818,0.0783,0.0784,0.0785,0.0941,0.0945,0.0948,0.1004,0.1002,0.1001,0.0999,0.117,0.1177,0.1184,0,0,0,0,0,0,0,0,0,0,0,0,0,0.0882,0.0817,0.0783,0.0825,0.083,0.0941,0.0945,0.0949,0.1004,0.1002,0.1,0.0998,0.1168,0.1176,0.1185,0.1284,0,0,0.1212,0.1216,0,0,0,0,0,0,0,0,0.0878,0.0881,0.0818,0.0822,0.0827,0.0942,0.102,0.1058,0.1005,0.0948,0.0999,0.0997,0.1092,0.1107,0.1155,0.1292,0.1299,0.1213,0.1218,0.1222,0.1225,0,0,0,0,0,0,0,0.0873,0.0877,0.0856,0.0819,0.0825,0.0935,0.094,0.103,0.1038,0.0953,0.0955,0.0958,0.1095,0.1146,0.1159,0.1302,0.1213,0.1221,0.1226,0.123,0.1426,0.1426,0,0,0,0,0,0,0.0821,0.0871,0.085,0.0859,0.0837,0.0934,0.0941,0.0916,0.1037,0.105,0.096,0.096,0.1132,0.1149,0.1165,0.1171,0.1222,0.123,0.1236,0.1426,0.1426,0.1426,0,0,0,0,0,0,0.0821,0.0816,0.0844,0.0864,0.0873,0.0933,0.0907,0.092,0.0921,0.104,0.1055,0.094,0.1131,0.1153,0.1205,0.1182,0.1234,0.1243,0.1426,0.1426,0.1426,0.1258,0,0,0,0,0,0,0.0821,0.0815,0.0777,0.0858,0.0869,0.0871,0.0908,0.0924,0.0925,0.0926,0.103,0.1046,0.1131,0.1191,0.1214,0.1195,0.125,0.1427,0.1426,0.1426,0.1263,0.1252,0.1242,0,0,0,0,0,0.0821,0.0772,0.0774,0.0771,0.0814,0.0869,0.0886,0.0931,0.0924,0.0925,0.0989,0.1041,0.1206,0.1198,0.1225,0.1208,0.1427,0.1426,0.1426,0.1268,0.1254,0.1242,0,0,0,0,0,0,0.077,0.0774,0.0778,0.0731,0.0776,0.0874,0.0868,0.09,0.0956,0.0934,0.1046,0.1069,0.11,0.1186,0.1175,0.1267,0.1323,0.1328,0.1194,0.1182,0.1171,0.1144,0.1257,0,0,0,0,0,0.0738,0.0699,0.0741,0.0707,0.0708,0.078,0.0801,0.0826,0.0887,0.0906,0.098,0.106,0.1135,0.1175,0.1253,0.1314,0.136,0.1321,0.131,0.13,0.1298,0.1387,0.1383,0.1425,0.1425,0.1425,0,0,0.0715,0.0708,0.0689,0.0694,0.0726,0.074,0.0787,0.0788,0.0811,0.0918,0.0951,0.1014,0.1138,0.1193,0.1217,0.1254,0.1293,0.13,0.129,0.1294,0.1386,0.1381,0.1378,0.1425,0.1425,0.1425,0,0,0.0662,0.0629,0.0586,0.0609,0.0621,0.0675,0.0654,0.0715,0.074,0.0785,0.086,0.0918,0.1028,0.1128,0.1192,0.1179,0.1222,0.1176,0.1115,0.12,0.1197,0.1195,0.1154,0.115,0.1185,0.1185,0.1184,0,0.0627,0.0578,0.0591,0.0567,0.0579,0.0629,0.0615,0.0665,0.074,0.0769,0.076,0.0926,0.1015,0.1122,0.1099,0.1156,0.1152,0.1146,0.1182,0.1182,0.1183,0.1144,0.1141,0.1177,0.1177,0.1178,0.1179,0,0.0566,0.0523,0.0498,0.0484,0.0507,0.0494,0.0554,0.0573,0.0593,0.0657,0.0716,0.0835,0.0934,0.0966,0.1022,0.1075,0.1044,0.114,0.1203,0.1168,0.1128,0.1128,0.1165,0.1168,0.117,0.1172,0,0,0.0492,0.0457,0.0446,0.0429,0.0451,0.0467,0.049,0.0548,0.0568,0.0621,0.0664,0.0777,0.0804,0.0878,0.0958,0.103,0.0998,0.1051,0.1059,0.0985,0.1058,0.0983,0.0976,0.1077,0.1079,0.108,0.0991,0,0.0438,0.037,0.0382,0.0353,0.0328,0.0385,0.0417,0.0474,0.053,0.0586,0.0691,0.075,0.0785,0.0802,0.0873,0.0982,0.1005,0.1005,0.1127,0.1129,0.105,0.098,0.1195,0.1131,0.0993,0.0993,0.0993,0,0.0377,0.0337,0.0278,0.028,0.0273,0.0271,0.0326,0.0361,0.0463,0.0496,0.0562,0.0641,0.072,0.0771,0.089,0.0865,0.092,0.1004,0.1006,0.1007,0.106,0.1169,0.1139,0.0995,0.0995,0.0995,0.0995,0,0.0327,0.0277,0.0223,0.0218,0.0226,0.0213,0.0227,0.0315,0.0346,0.0424,0.0443,0.0556,0.0593,0.0704,0.0789,0.0836,0.0901,0.1027,0.1005,0.0995,0.1245,0.1256,0.1115,0.1115,0.1116,0.1116,0.1116,0,0.0274,0.0233,0.0176,0.0146,0.0101,0.0127,0.0117,0.0161,0.0222,0.0254,0.0359,0.0398,0.0579,0.0637,0.0736,0.0799,0.0848,0.0954,0.0984,0.1178,0.1184,0.1159,0.1165,0.1112,0.1113,0.1114,0.1114,0,0.024,0.0197,0.0136,0.009,0.0068,0.0031,0.0021,0.0039,0.0076,0.0118,0.0124,0.0255,0.0309,0.0437,0.0609,0.0714,0.0819,0.0833,0.0956,0.1002,0.0863,0.0862,0.0835,0.0832,0.0829,0.0827,0.0825,0,0.0221,0.0174,0.0084,0.0039,0.0001,-0.0054,-0.0071,-0.0048,-0.0019,0.0034,0.0059,0.0104,0.0138,0.0275,0.0508,0.0624,0.0664,0.0895,0.1082,0.081,0.0843,0.0846,0.0848,0.1312,0.1315,0.1317,0.1318,0,0.0205,0.0158,0.0109,0.0003,-0.006,-0.0105,-0.0138,-0.0154,-0.0113,-0.011,-0.011,-0.0102,0.0064,0.036,0.0521,0.0631,0.0898,0.0932,0.0688,0.1321,0.1248,0.1283,0.1273,0.1335,0.1334,0.1332,0.1331,0.1331,0.0208,0.0167,0.009,-0.0003,-0.008,-0.0151,-0.0215,-0.024,-0.0273,-0.0271,-0.022,-0.0035,0.0343,0.0716,0.0718,0.0819,0.0881,0.1117,0.112,0.1118,0.116,0.1085,0.1142,0.1139,0.1137,0.1135,0.1133,0,0.0243,0.018,0.01,-0.0009,-0.0088,-0.0155,-0.0235,-0.0295,-0.0394,-0.0279,-0.0301,0.0305,0.0638,0.0898,0.1143,0.1182,0.1184,0.1154,0.1322,0.1315,0.1306,0.136,0.1393,0.139,0.1388,0.1385,0,0,0.0261,0.0208,0.0159,0.0025,-0.0088,-0.0236,-0.0324,-0.0434,-0.0366,-0.0267,0.0065,0.0392,0.0918,0.1185,0.1267,0.1324,0.1189,0.1236,0.1085,0.1267,0.1249,0.1416,0.1506,0,0,0,0,0]}],[{"header":{"parameterUnit":"m.s-1","parameterCategory":2,"la1":30.2991,"la2":30.254,"lo1":-89.0895,"lo2":-89.0444,"dy":0.0017,"dx":0.0017,"nx":28,"ny":28,"refTime":"2023-04-27T21:00:00:Z","depth":"4","parameterNumber":2,"parameterNumberName":"U-component_of_CURRENTS"},"data":[0,0,0,0,0,0,0,0,0,0,0,0,0,0,0,0,0,0,0,0,0,0,0,0,0,0,0,0,0,0,0,0,0,0,0,0,0,0,0,0,0,0,0,0,0,0,0,0,0,0,0,0,0,0,0,0,0,0,-0.083,-0.0831,0,-0.087,-0.0869,-0.0869,-0.0864,-0.0865,-0.0866,-0.0866,-0.1038,-0.1042,-0.1046,0,0,0,0,0,0,0,0,0,0,0,0,0,-0.0657,-0.066,-0.083,-0.0832,-0.0833,-0.087,-0.0869,-0.0868,-0.0864,-0.0865,-0.0866,-0.0867,-0.1037,-0.1042,-0.1047,0,0,0,0,0,0,0,0,0,0,0,0,0,-0.0705,-0.0661,-0.0829,-0.0846,-0.0849,-0.087,-0.0869,-0.0868,-0.0864,-0.0865,-0.0866,-0.0867,-0.1036,-0.1041,-0.1047,-0.1065,0,0,-0.1066,-0.1068,0,0,0,0,0,0,0,0,-0.0703,-0.071,-0.0842,-0.0845,-0.0848,-0.0875,-0.0872,-0.0945,-0.0864,-0.0844,-0.0866,-0.0867,-0.1005,-0.1013,-0.0997,-0.1073,-0.1081,-0.1066,-0.107,-0.1072,-0.1074,0,0,0,0,0,0,0,-0.07,-0.0708,-0.0832,-0.0844,-0.0848,-0.0821,-0.0828,-0.0884,-0.091,-0.0846,-0.0849,-0.0875,-0.1005,-0.0991,-0.1002,-0.1083,-0.1066,-0.1071,-0.1075,-0.1077,-0.1343,-0.1347,0,0,0,0,0,0,-0.0727,-0.0706,-0.0831,-0.0834,-0.0792,-0.0824,-0.0831,-0.0854,-0.0907,-0.0919,-0.0874,-0.0875,-0.098,-0.0995,-0.1008,-0.1173,-0.1072,-0.1078,-0.1081,-0.134,-0.1344,-0.1348,0,0,0,0,0,0,-0.0723,-0.0737,-0.0829,-0.0781,-0.0793,-0.0828,-0.0853,-0.0855,-0.0887,-0.0929,-0.0941,-0.0911,-0.0981,-0.1,-0.1138,-0.1175,-0.1081,-0.1086,-0.1336,-0.1341,-0.1346,-0.1415,0,0,0,0,0,0,-0.0717,-0.0735,-0.0755,-0.0784,-0.0798,-0.0883,-0.0853,-0.0856,-0.0905,-0.0907,-0.0965,-0.0978,-0.0984,-0.1129,-0.1144,-0.1182,-0.1091,-0.1331,-0.1338,-0.1344,-0.1408,-0.1421,-0.1433,0,0,0,0,0,-0.0711,-0.0724,-0.0756,-0.0772,-0.0826,-0.0886,-0.089,-0.0907,-0.0907,-0.0934,-0.1003,-0.0979,-0.1179,-0.1139,-0.1155,-0.1194,-0.1328,-0.1336,-0.1344,-0.1402,-0.1419,-0.1433,0,0,0,0,0,0,-0.0657,-0.0727,-0.0762,-0.0798,-0.0868,-0.0892,-0.091,-0.0936,-0.0999,-0.1028,-0.1043,-0.1064,-0.1187,-0.12,-0.1154,-0.1293,-0.1241,-0.1253,-0.128,-0.1296,-0.1309,-0.1271,-0.1096,0,0,0,0,0,-0.0663,-0.07,-0.0774,-0.0817,-0.0846,-0.089,-0.0916,-0.0962,-0.1024,-0.105,-0.1083,-0.1146,-0.122,-0.1271,-0.1326,-0.1421,-0.137,-0.1453,-0.1466,-0.1476,-0.146,-0.1431,-0.1437,-0.1373,-0.1373,-0.1373,0,0,-0.0662,-0.0707,-0.0731,-0.0811,-0.085,-0.0894,-0.0905,-0.0988,-0.1038,-0.1067,-0.1134,-0.12,-0.126,-0.1359,-0.1412,-0.1383,-0.1473,-0.1486,-0.1494,-0.1472,-0.144,-0.1445,-0.145,-0.1379,-0.1378,-0.1377,0,0,-0.0656,-0.0717,-0.0734,-0.081,-0.0916,-0.0937,-0.0979,-0.1047,-0.1087,-0.1201,-0.1225,-0.132,-0.142,-0.1453,-0.1489,-0.161,-0.1541,-0.1641,-0.1674,-0.1648,-0.165,-0.1653,-0.1597,-0.1593,-0.1644,-0.1645,-0.1645,0,-0.0658,-0.0702,-0.0755,-0.0811,-0.0867,-0.0959,-0.1007,-0.1063,-0.1176,-0.1212,-0.1246,-0.1389,-0.1447,-0.1544,-0.1597,-0.163,-0.16,-0.1607,-0.1657,-0.1658,-0.1659,-0.1601,-0.1596,-0.1649,-0.1648,-0.1648,-0.1648,0,-0.0677,-0.0734,-0.076,-0.0845,-0.0896,-0.0989,-0.1077,-0.117,-0.1234,-0.1258,-0.1392,-0.1486,-0.1569,-0.1605,-0.1651,-0.1706,-0.1678,-0.1671,-0.1601,-0.1668,-0.1605,-0.1598,-0.1655,-0.1653,-0.1652,-0.1651,0,0,-0.0642,-0.0747,-0.0764,-0.0821,-0.095,-0.1,-0.1107,-0.1193,-0.1279,-0.1369,-0.1435,-0.157,-0.1616,-0.1663,-0.1733,-0.1721,-0.1721,-0.1718,-0.1715,-0.1631,-0.1647,-0.1492,-0.1469,-0.1728,-0.1728,-0.1728,-0.1598,0,-0.0656,-0.0725,-0.0775,-0.087,-0.0919,-0.1058,-0.1123,-0.1231,-0.1341,-0.1431,-0.151,-0.1597,-0.1639,-0.173,-0.1733,-0.1722,-0.1709,-0.1755,-0.1621,-0.1616,-0.1444,-0.1458,-0.1726,-0.1593,-0.1591,-0.159,-0.1589,0,-0.0668,-0.0711,-0.0774,-0.0898,-0.0929,-0.1019,-0.1193,-0.1304,-0.1444,-0.1524,-0.1632,-0.1656,-0.1704,-0.1738,-0.1699,-0.1732,-0.1711,-0.1674,-0.1668,-0.1485,-0.1448,-0.1517,-0.1576,-0.1577,-0.1578,-0.1579,-0.158,0,-0.0608,-0.0727,-0.0765,-0.0829,-0.0957,-0.1066,-0.1192,-0.1348,-0.1415,-0.1629,-0.1628,-0.1708,-0.1715,-0.1713,-0.1646,-0.1686,-0.1546,-0.1581,-0.1409,-0.1396,-0.1541,-0.154,-0.1544,-0.1544,-0.1544,-0.1545,-0.1545,0,-0.0617,-0.0667,-0.0782,-0.0833,-0.0929,-0.1079,-0.1241,-0.1399,-0.1547,-0.1525,-0.1696,-0.1636,-0.1701,-0.1609,-0.162,-0.1455,-0.1518,-0.1389,-0.1347,-0.1578,-0.1583,-0.1535,-0.1536,-0.154,-0.1541,-0.1542,-0.1543,0,-0.0562,-0.0628,-0.0689,-0.0839,-0.091,-0.1025,-0.1248,-0.1309,-0.1512,-0.1515,-0.1533,-0.1528,-0.1401,-0.1413,-0.1351,-0.134,-0.1264,-0.1205,-0.1412,-0.1388,-0.1146,-0.1153,-0.0994,-0.0987,-0.0982,-0.0977,-0.0973,0,-0.0544,-0.0568,-0.0675,-0.0702,-0.0802,-0.1002,-0.1055,-0.1294,-0.131,-0.1362,-0.1244,-0.1173,-0.1144,-0.0958,-0.1017,-0.1009,-0.102,-0.1016,-0.113,-0.1111,-0.1087,-0.1103,-0.1117,-0.0964,-0.0962,-0.0961,-0.0959,0,-0.0504,-0.0531,-0.0563,-0.0614,-0.0686,-0.0758,-0.0894,-0.089,-0.1043,-0.1103,-0.0969,-0.0946,-0.0782,-0.0783,-0.0788,-0.0789,-0.105,-0.0958,-0.0972,-0.1079,-0.1073,-0.1059,-0.1079,-0.094,-0.0943,-0.0945,-0.0946,0,-0.0463,-0.0463,-0.0489,-0.0544,-0.0558,-0.0556,-0.0674,-0.0666,-0.073,-0.0774,-0.0665,-0.0668,-0.0671,-0.0651,-0.0629,-0.0643,-0.0661,-0.0728,-0.0755,-0.0777,-0.0775,-0.074,-0.044,0,0,0,0,0,-0.0423,-0.0419,-0.0426,-0.047,-0.0444,-0.0489,-0.0508,-0.0595,-0.0659,-0.0505,-0.0644,-0.0507,-0.0496,-0.0498,-0.047,-0.0519,-0.0668,-0.0487,-0.0762,-0.0831,-0.0854,-0.0877,0,0,0,0,0,0,-0.0398,-0.0397,-0.0405,-0.0382,-0.0384,-0.0383,-0.0399,-0.0439,-0.0418,-0.0465,-0.0447,-0.0483,-0.0463,-0.0497,-0.0459,-0.0463,-0.063,-0.0497,-0.0496,-0.0818,-0.0839,-0.0857,-0.0889,0,0,0,0,0]},{"header":{"parameterUnit":"m.s-1","parameterCategory":2,"la1":30.2991,"la2":30.254,"lo1":-89.0895,"lo2":-89.0444,"dy":0.0017,"dx":0.0017,"nx":28,"ny":28,"refTime":"2023-04-27T21:00:00:Z","depth":"4","parameterNumber":3,"parameterNumberName":"V-component_of_CURRENTS"},"data":[0,0,0,0,0,0,0,0,0,0,0,0,0,0,0,0,0,0,0,0,0,0,0,0,0,0,0,0,0,0,0,0,0,0,0,0,0,0,0,0,0,0,0,0,0,0,0,0,0,0,0,0,0,0,0,0,0,0,-0.0255,-0.0255,0,-0.0264,-0.0264,-0.0264,-0.0292,-0.0293,-0.0293,-0.0293,-0.0223,-0.0221,-0.0219,0,0,0,0,0,0,0,0,0,0,0,0,0,-0.0257,-0.0258,-0.0255,-0.0255,-0.0255,-0.0263,-0.0264,-0.0265,-0.0292,-0.0293,-0.0293,-0.0293,-0.0224,-0.0221,-0.0219,0,0,0,0,0,0,0,0,0,0,0,0,0,-0.0265,-0.0258,-0.0255,-0.0266,-0.0267,-0.0263,-0.0264,-0.0265,-0.0292,-0.0293,-0.0293,-0.0293,-0.0224,-0.0221,-0.0218,-0.0194,0,0,-0.0209,-0.0208,0,0,0,0,0,0,0,0,-0.0264,-0.0265,-0.0265,-0.0265,-0.0266,-0.0273,-0.0239,-0.0235,-0.0292,-0.0288,-0.0293,-0.0293,-0.0229,-0.0226,-0.0234,-0.019,-0.0187,-0.0209,-0.0207,-0.0206,-0.0205,0,0,0,0,0,0,0,-0.0264,-0.0265,-0.0263,-0.0264,-0.0265,-0.0268,-0.027,-0.0239,-0.0259,-0.0288,-0.0289,-0.0282,-0.023,-0.0238,-0.0233,-0.0186,-0.0209,-0.0206,-0.0204,-0.0203,-0.0126,-0.0126,0,0,0,0,0,0,-0.0253,-0.0264,-0.0263,-0.0263,-0.026,-0.0267,-0.027,-0.0274,-0.0261,-0.0258,-0.0282,-0.0283,-0.0243,-0.0236,-0.023,-0.0199,-0.0206,-0.0203,-0.0201,-0.0126,-0.0126,-0.0126,0,0,0,0,0,0,-0.0254,-0.0254,-0.0263,-0.0259,-0.026,-0.0267,-0.0272,-0.0274,-0.0282,-0.0256,-0.0253,-0.0287,-0.0243,-0.0234,-0.0189,-0.0196,-0.0201,-0.0199,-0.0127,-0.0126,-0.0126,-0.0137,0,0,0,0,0,0,-0.0254,-0.0254,-0.0263,-0.0259,-0.026,-0.0267,-0.0271,-0.0274,-0.0275,-0.0278,-0.0259,-0.0253,-0.0242,-0.0194,-0.0186,-0.0192,-0.0196,-0.0127,-0.0127,-0.0126,-0.0137,-0.0137,-0.0137,0,0,0,0,0,-0.0254,-0.027,-0.0264,-0.0264,-0.027,-0.0267,-0.0269,-0.0277,-0.0275,-0.0284,-0.0254,-0.0254,-0.0188,-0.019,-0.0182,-0.0187,-0.0127,-0.0127,-0.0126,-0.0137,-0.0137,-0.0137,0,0,0,0,0,0,-0.0273,-0.0273,-0.0267,-0.0281,-0.0273,-0.027,-0.0277,-0.0274,-0.0262,-0.0254,-0.0234,-0.0226,-0.0196,-0.0183,-0.0187,-0.0165,-0.0164,-0.0162,-0.0175,-0.0175,-0.0175,-0.0207,-0.0194,0,0,0,0,0,-0.0279,-0.0296,-0.0281,-0.0292,-0.0284,-0.0277,-0.0278,-0.0275,-0.0257,-0.0255,-0.0247,-0.0223,-0.0189,-0.0173,-0.0152,-0.0125,-0.0084,-0.0129,-0.0129,-0.0129,-0.015,-0.0042,-0.0034,-0.0125,-0.0125,-0.0125,0,0,-0.0282,-0.0289,-0.0294,-0.0297,-0.0289,-0.0292,-0.028,-0.0274,-0.029,-0.0243,-0.0263,-0.022,-0.018,-0.0158,-0.0146,-0.0146,-0.0085,-0.0129,-0.0129,-0.015,-0.0041,-0.0032,-0.0024,-0.0124,-0.0124,-0.0124,0,0,-0.0294,-0.0305,-0.0313,-0.0314,-0.0301,-0.0301,-0.0297,-0.0292,-0.0305,-0.0292,-0.0263,-0.0231,-0.0194,-0.0179,-0.0157,-0.0145,-0.0087,-0.0127,-0.0154,-0.0048,-0.0039,-0.0031,0.0022,0.0035,-0.0129,-0.0129,-0.0129,0,-0.0292,-0.0314,-0.0313,-0.0321,-0.033,-0.0306,-0.0313,-0.0321,-0.031,-0.0318,-0.0303,-0.0252,-0.0218,-0.0185,-0.0173,-0.0151,-0.0074,-0.0153,-0.0046,-0.0037,-0.0029,0.0024,0.0039,-0.013,-0.013,-0.013,-0.013,0,-0.0304,-0.0327,-0.033,-0.0343,-0.0354,-0.0355,-0.0356,-0.037,-0.0371,-0.0374,-0.0355,-0.0302,-0.027,-0.025,-0.0198,-0.0131,-0.0091,-0.0053,-0.0044,-0.002,0.0034,0.0049,-0.013,-0.013,-0.013,-0.013,0,0,-0.0285,-0.0329,-0.0332,-0.0356,-0.0369,-0.0378,-0.0405,-0.0422,-0.0439,-0.0428,-0.0438,-0.038,-0.0339,-0.0312,-0.0248,-0.0163,-0.0032,-0.0067,-0.0061,-0.0014,0.0203,0.0201,0.0218,0.0071,0.0073,0.0076,0.0213,0,-0.0289,-0.0322,-0.0351,-0.0394,-0.0407,-0.0426,-0.0465,-0.048,-0.0479,-0.0484,-0.0439,-0.0399,-0.0364,-0.0304,-0.0225,-0.0086,0.0012,-0.0075,0.017,0.0174,0.0174,0.0236,0.0084,0.0225,0.0228,0.0231,0.0233,0,-0.029,-0.0321,-0.0359,-0.0437,-0.0446,-0.0477,-0.053,-0.0549,-0.0549,-0.0527,-0.0489,-0.044,-0.0358,-0.0287,-0.0091,-0.0125,0.0044,0.015,0.0159,0.0166,0.0202,0.0199,0.0261,0.0259,0.0257,0.0255,0.0253,0,-0.028,-0.0337,-0.038,-0.0399,-0.0467,-0.0507,-0.0537,-0.0564,-0.0567,-0.0518,-0.0477,-0.0422,-0.0338,-0.017,0.0012,0.0011,0.0258,0.0275,0.0414,0.0414,0.0376,0.0367,0.0472,0.0472,0.0472,0.0471,0.0471,0,-0.0286,-0.0325,-0.0382,-0.0406,-0.0479,-0.0511,-0.0558,-0.0574,-0.055,-0.0521,-0.0473,-0.0414,-0.0274,-0.0141,0.0022,0.0238,0.0267,0.0411,0.0463,0.0365,0.0353,0.0387,0.0375,0.0477,0.0475,0.0474,0.0474,0,-0.028,-0.0311,-0.0368,-0.0444,-0.0478,-0.0519,-0.0564,-0.0571,-0.0533,-0.0476,-0.0435,-0.0365,-0.0205,-0.0085,0.018,0.0265,0.0466,0.0568,0.0416,0.0457,0.054,0.0526,0.0694,0.0695,0.0696,0.0697,0.0698,0,-0.0285,-0.0306,-0.039,-0.0426,-0.047,-0.0521,-0.0553,-0.0552,-0.0524,-0.0438,-0.0393,-0.026,-0.0192,0.0133,0.0245,0.0494,0.0562,0.0646,0.0611,0.0536,0.057,0.0554,0.0539,0.07,0.07,0.07,0.0701,0,-0.0294,-0.0316,-0.0363,-0.0422,-0.0471,-0.0518,-0.0542,-0.0512,-0.0465,-0.0436,-0.0272,-0.0141,0.0018,0.0166,0.0367,0.055,0.055,0.0659,0.0658,0.0625,0.0546,0.0575,0.0558,0.0705,0.0704,0.0704,0.0704,0,-0.0293,-0.0327,-0.0364,-0.0418,-0.0474,-0.0488,-0.0513,-0.0445,-0.0406,-0.0285,-0.0238,-0.0075,-0.0002,0.0202,0.0378,0.0535,0.0571,0.0633,0.0633,0.063,0.0552,0.0438,0.0621,0,0,0,0,0,-0.0267,-0.0294,-0.0355,-0.0412,-0.0457,-0.0475,-0.0492,-0.0489,-0.0437,-0.0287,-0.0241,-0.0071,0.0169,0.0229,0.0399,0.0347,0.0546,0.0543,0.0606,0.0727,0.0723,0.064,0,0,0,0,0,0,-0.0248,-0.0297,-0.0338,-0.0375,-0.0398,-0.0439,-0.0436,-0.0414,-0.0319,-0.0248,-0.0121,-0.0024,0.0185,0.0097,0.0409,0.0442,0.0506,0.0649,0.0652,0.073,0.0726,0.0722,0.0635,0,0,0,0,0]}]]